CAPE
0 0 0 0 0 0 0 0 0 0 823 1029 1418 588 738 837 382 491 1239 1070 1236 1179 1339 1556 1610 1853 1932 2019 2067 2082 2049 1938 1914 2066 2036 2043 2077 2133 2156 2084 1995 1997 1909 1859 1918 1951 1831 1796 1655
0 0 0 0 0 0 0 0 0 361 1263 1484 1371 1558 1257 1498 1677 1701 1421 962 850 813 848 1080 1082 1268 1286 1262 1154 1164 1144 1316 1479 1634 1768 1957 2096 2084 2074 1973 1792 1912 1870 1874 1830 1895 1920 1907 1618
0 0 0 0 0 0 0 0 0 538 1435 151 279 426 809 1517 1799 1498 915 429 288 279 282 275 282 378 384 430 413 279 265 262 298 385 579 788 1058 1604 1887 1872 1741 1811 1743 1874 1929 1975 1925 1448 1392
0 0 0 0 0 0 0 0 0 0 0 0 136 424 512 881 1398 964 333 82 0 9 2 3 90 115 33 13 7 1 0 0 0 0 0 17 289 712 1170 1344 1466 1638 1761 1660 1709 1888 1737 1265 1142
0 0 0 0 0 0 0 0 0 0 0 0 65 214 949 1235 951 509 140 5 0 0 0 0 0 0 0 0 0 0 0 0 0 0 0 0 0 7 304 597 987 1336 1549 1744 1743 1595 1481 1268 1098
0 0 0 0 0 0 0 0 0 0 5 29 137 400 753 1360 953 215 9 0 0 0 0 0 0 0 0 0 0 0 0 0 0 0 0 0 0 0 0 324 836 872 924 1137 1355 1366 1298 1189 1108
0 0 0 0 0 0 0 0 0 0 0 16 64 296 932 712 209 27 0 0 0 0 0 0 0 0 0 0 0 0 0 0 0 0 0 0 0 0 0 0 6 0 0 162 526 658 783 1011 1065
0 0 0 0 0 0 0 0 0 0 0 0 17 333 616 333 0 0 0 0 0 0 0 0 0 0 0 0 0 0 0 0 0 0 0 0 0 0 0 0 0 0 0 0 0 0 262 515 581
0 0 0 0 0 0 0 0 0 0 0 0 0 148 301 46 0 0 0 0 0 0 0 0 0 0 0 0 0 0 0 0 0 0 0 0 0 0 0 0 0 0 0 0 0 0 0 1 235
0 0 0 0 0 0 0 0 0 0 0 0 0 53 41 0 0 0 0 0 0 0 0 0 0 0 0 0 0 0 0 0 0 0 0 0 0 0 0 0 0 0 0 0 0 0 0 0 0
0 0 0 0 0 0 0 0 0 0 0 0 0 0 0 0 0 0 0 0 0 0 0 0 0 0 0 0 0 0 0 0 0 0 0 0 0 0 0 0 0 0 0 0 0 0 0 0 0
0 0 0 0 0 0 0 0 0 0 0 0 0 0 0 0 0 0 0 0 0 0 0 0 0 0 0 0 0 0 0 0 0 0 0 0 0 0 0 0 0 0 0 0 0 0 0 0 0
0 0 0 0 0 0 0 0 0 0 0 0 0 0 0 0 0 0 0 0 0 0 0 0 0 0 0 0 0 0 0 0 0 0 0 0 0 0 0 0 0 0 0 0 0 0 0 0 0
0 0 0 0 0 0 0 0 0 0 0 0 0 0 0 0 0 0 0 0 0 0 0 0 0 0 0 0 0 0 0 0 0 0 0 0 0 0 0 0 0 0 0 0 0 0 0 0 0
0 0 0 0 0 0 0 0 0 0 0 0 0 0 0 0 0 0 0 0 0 0 0 0 0 0 0 0 0 0 0 0 0 0 0 0 0 0 0 0 0 0 0 0 0 0 0 0 0
0 0 0 0 0 0 0 0 0 0 0 0 0 0 0 0 0 0 0 0 0 0 0 0 0 0 0 0 0 0 0 0 0 0 0 0 0 0 0 0 0 0 0 0 0 0 0 0 0
0 0 0 0 0 0 0 0 0 0 0 0 0 0 0 0 0 0 0 0 0 0 0 0 0 0 0 0 0 0 0 0 0 0 0 0 0 0 0 0 0 0 0 0 0 0 0 0 0
0 0 0 0 0 0 0 0 0 0 0 0 0 0 0 0 0 0 0 0 0 0 0 0 0 0 0 0 0 0 0 0 0 0 0 0 0 0 0 0 0 0 0 0 0 0 0 0 0
0 0 0 0 0 0 0 0 0 0 0 0 0 0 0 0 0 0 0 0 0 0 0 0 0 0 0 0 0 0 0 0 0 0 0 0 0 0 0 0 0 0 0 0 0 0 0 0 0
0 0 0 0 0 0 0 0 0 0 0 0 0 0 0 0 0 0 0 0 0 0 0 0 0 0 0 0 0 0 0 0 0 0 0 0 0 0 0 0 0 0 0 0 0 0 0 0 0
0 0 0 0 0 0 0 0 0 0 0 0 0 0 0 0 0 0 0 0 0 0 0 0 0 0 0 0 0 0 0 0 0 0 0 0 0 0 0 0 0 0 0 0 0 0 1 3 1
0 0 0 0 0 0 0 0 0 0 0 0 0 0 0 0 0 0 0 0 0 0 0 0 0 0 0 0 0 0 0 0 0 0 0 0 0 0 0 0 0 0 0 0 0 3 3 8 4
0 0 0 0 0 0 0 0 0 0 0 0 0 0 0 0 0 0 0 0 0 0 0 0 0 0 0 0 0 0 0 0 0 0 0 0 0 0 0 0 0 0 0 0 0 1 5 3 5
0 0 0 0 0 0 0 0 0 0 0 0 0 0 0 0 0 0 0 0 0 0 0 0 0 0 0 0 0 0 0 0 0 0 0 0 0 0 0 0 0 0 0 0 2 1 1 3 8
0 0 0 0 0 0 0 0 0 0 0 0 0 0 0 0 0 0 0 0 0 0 0 0 0 0 0 0 0 0 0 0 0 0 0 0 0 0 0 0 0 0 0 3 1 2 2 3 3
0 0 0 0 0 0 0 0 0 0 0 0 0 0 0 0 0 0 0 0 0 0 0 0 0 0 0 0 0 0 0 0 0 0 0 0 0 0 0 0 0 0 1 1 1 1 1 3 9
0 0 0 0 0 0 0 0 0 0 0 0 0 0 0 0 0 0 0 0 0 0 0 0 0 0 0 0 0 0 0 0 0 0 0 0 0 0 0 0 0 0 3 2 6 4 2 0 0
0 0 0 0 1 0 0 0 0 0 0 0 0 0 0 0 0 0 0 0 0 0 0 0 0 0 0 0 0 0 0 0 0 0 0 0 0 0 0 0 0 0 1 7 6 6 0 0 0
4 0 8 0 3 0 0 0 0 0 0 0 0 0 0 0 0 0 0 0 0 0 0 0 0 0 0 0 0 0 0 0 0 0 0 0 0 0 0 0 0 0 5 2 1 0 0 0 0
48 22 5 0 10 22 0 0 0 0 1 0 0 0 0 0 0 0 0 0 0 0 0 0 0 0 0 0 0 0 0 0 0 0 0 0 0 0 0 0 0 9 15 4 3 0 0 0 0
CIN
-0 -0 -0 -0 -0 -0 -0 -0 -0 -0 -121 -194 -148 -258 -263 -263 -317 -266 -214 -245 -216 -244 -203 -135 -117 -73 -37 -11 -5 -3 -2 -7 -10 -2 -1 -2 -2 -1 -0 -0 -0 -0 -0 -0 -0 -0 -1 -0 -2
-0 -0 -0 -0 -0 -0 -0 -0 -0 -237 -225 -232 -182 -156 -171 -101 -110 -128 -140 -212 -287 -308 -269 -197 -199 -142 -142 -113 -111 -86 -81 -45 -24 -17 -11 -1 -0 -0 -0 -0 -1 -0 -0 -0 -0 -0 -0 -1 -3
-0 -0 -0 -0 -0 -0 -0 -0 -0 -170 -215 -351 -456 -462 -333 -160 -103 -139 -224 -348 -444 -439 -424 -404 -395 -346 -339 -321 -306 -332 -339 -322 -289 -214 -120 -83 -51 -6 -0 -0 -0 -0 -0 -0 -0 -0 -0 -11 -13
-0 -0 -0 -0 -0 -0 -0 -0 -0 -0 -0 -0 -591 -488 -425 -322 -177 -241 -389 -538 -17 -619 -657 -582 -450 -444 -475 -521 -586 -13 -15 -0 -0 -0 -0 -527 -236 -83 -6 -0 -0 -0 -0 -0 -0 -0 -1 -14 -28
-0 -0 -0 -0 -0 -0 -0 -0 -0 -0 -0 -0 -506 -536 -281 -187 -241 -335 -469 -556 -0 -0 -0 -0 -0 -0 -0 -0 -0 -0 -0 -0 -0 -0 -0 -0 -0 -373 -218 -94 -14 -0 -0 -0 -0 -2 -6 -13 -25
-0 -0 -0 -0 -0 -0 -0 -0 -0 -0 -112 -452 -527 -459 -265 -130 -192 -424 -745 -0 -0 -0 -0 -0 -0 -0 -0 -0 -0 -0 -0 -0 -0 -0 -0 -0 -0 -0 -0 -144 -10 -14 -17 -6 -3 -7 -14 -21 -24
-0 -0 -0 -0 -0 -0 -0 -0 -0 -0 -0 -269 -576 -428 -215 -235 -451 -634 -0 -0 -0 -0 -0 -0 -0 -0 -0 -0 -0 -0 -0 -0 -0 -0 -0 -0 -0 -0 -0 -0 -27 -0 -4 -232 -83 -61 -51 -23 -18
-0 -0 -0 -0 -0 -0 -0 -0 -0 -0 -0 -0 -506 -396 -251 -432 -0 -0 -0 -0 -0 -0 -0 -0 -0 -0 -0 -0 -0 -0 -0 -0 -0 -0 -0 -0 -0 -0 -0 -0 -0 -0 -0 -0 -0 -0 -216 -124 -99
-0 -0 -0 -0 -0 -0 -0 -0 -0 -0 -0 -0 -0 -440 -424 -690 -0 -0 -0 -0 -0 -0 -0 -0 -0 -0 -0 -0 -0 -0 -0 -0 -0 -0 -0 -0 -0 -0 -0 -0 -0 -0 -0 -0 -0 -0 -0 -130 -126
-0 -0 -0 -0 -0 -0 -0 -0 -0 -0 -0 -0 -0 -478 -580 -42 -0 -0 -0 -0 -0 -0 -0 -0 -0 -0 -0 -0 -0 -0 -0 -0 -0 -0 -0 -0 -0 -0 -0 -0 -0 -0 -0 -0 -0 -0 -0 -0 -0
-0 -0 -0 -0 -0 -0 -0 -0 -0 -0 -0 -0 -65 -0 -0 -0 -0 -0 -0 -0 -0 -0 -0 -0 -0 -0 -0 -0 -0 -0 -0 -0 -0 -0 -0 -0 -0 -0 -0 -0 -0 -0 -0 -0 -0 -0 -0 -0 -0
-0 -0 -0 -0 -0 -0 -0 -0 -0 -0 -0 -0 -0 -0 -0 -0 -0 -0 -0 -0 -0 -0 -0 -0 -0 -0 -0 -0 -0 -0 -0 -0 -0 -0 -0 -0 -0 -0 -0 -0 -0 -0 -0 -0 -0 -0 -0 -0 -0
-0 -0 -0 -0 -0 -0 -0 -0 -0 -0 -0 -0 -0 -0 -0 -0 -0 -0 -0 -0 -0 -0 -0 -0 -0 -0 -0 -0 -0 -0 -0 -0 -0 -0 -0 -0 -0 -0 -0 -0 -0 -0 -0 -0 -0 -0 -0 -0 -0
-0 -0 -0 -0 -0 -0 -0 -0 -0 -0 -0 -0 -0 -0 -0 -0 -0 -0 -0 -0 -0 -0 -0 -0 -0 -0 -0 -0 -0 -0 -0 -0 -0 -0 -0 -0 -0 -0 -0 -0 -0 -0 -0 -0 -0 -0 -0 -0 -0
-0 -0 -0 -0 -0 -0 -0 -0 -0 -0 -0 -0 -0 -0 -0 -0 -0 -0 -0 -0 -0 -0 -0 -0 -0 -0 -0 -0 -0 -0 -0 -0 -0 -0 -0 -0 -0 -0 -0 -0 -0 -0 -0 -0 -0 -0 -0 -0 -0
-0 -0 -0 -0 -0 -0 -0 -0 -0 -0 -0 -0 -0 -0 -0 -0 -0 -0 -0 -0 -0 -0 -0 -0 -0 -0 -0 -0 -0 -0 -0 -0 -0 -0 -0 -0 -0 -0 -0 -0 -0 -0 -0 -0 -0 -0 -0 -0 -0
-0 -0 -0 -0 -0 -0 -0 -0 -0 -0 -0 -0 -0 -0 -0 -0 -0 -0 -0 -0 -0 -0 -0 -0 -0 -0 -0 -0 -0 -0 -0 -0 -0 -0 -0 -0 -0 -0 -0 -0 -0 -0 -0 -0 -0 -0 -0 -0 -0
-0 -0 -0 -0 -0 -0 -0 -0 -0 -0 -0 -0 -0 -0 -0 -0 -0 -0 -0 -0 -0 -0 -0 -0 -0 -0 -0 -0 -0 -0 -0 -0 -0 -0 -0 -0 -0 -0 -0 -0 -0 -0 -0 -0 -0 -0 -0 -0 -0
-0 -0 -0 -0 -0 -0 -0 -0 -0 -0 -0 -0 -0 -0 -0 -0 -0 -0 -0 -0 -0 -0 -0 -0 -0 -0 -0 -0 -0 -0 -0 -0 -0 -0 -0 -0 -0 -0 -0 -0 -0 -0 -0 -0 -0 -0 -0 -0 -0
-0 -0 -0 -0 -0 -0 -0 -0 -0 -0 -0 -0 -0 -0 -0 -0 -0 -0 -0 -0 -0 -0 -0 -0 -0 -0 -0 -0 -0 -0 -0 -0 -0 -0 -0 -0 -0 -0 -0 -0 -0 -0 -0 -0 -0 -0 -0 -0 -0
-0 -0 -0 -0 -0 -0 -0 -0 -0 -0 -0 -0 -0 -0 -0 -0 -0 -0 -0 -0 -0 -0 -0 -0 -0 -0 -0 -0 -0 -0 -0 -0 -0 -0 -0 -0 -0 -0 -0 -0 -0 -0 -0 -0 -0 -0 -0 -0 -1
-0 -0 -0 -0 -0 -0 -0 -0 -0 -0 -0 -0 -0 -0 -0 -0 -0 -0 -0 -0 -0 -0 -0 -0 -0 -0 -0 -0 -0 -0 -0 -0 -0 -0 -0 -0 -0 -0 -0 -0 -0 -0 -0 -0 -0 -0 -0 -0 -0
-0 -0 -0 -0 -0 -0 -0 -0 -0 -0 -0 -0 -0 -0 -0 -0 -0 -0 -0 -0 -0 -0 -0 -0 -0 -0 -0 -0 -0 -0 -0 -0 -0 -0 -0 -0 -0 -0 -0 -0 -0 -0 -0 -0 -0 -2 -3 -1 -0
-0 -0 -0 -0 -0 -0 -0 -0 -0 -0 -0 -0 -0 -0 -0 -0 -0 -0 -0 -0 -0 -0 -0 -0 -0 -0 -0 -0 -0 -0 -0 -0 -0 -0 -0 -0 -0 -0 -0 -0 -0 -0 -0 -0 -1 -2 -1 -0 -0
-0 -0 -0 -0 -0 -0 -0 -0 -0 -0 -0 -0 -0 -0 -0 -0 -0 -0 -0 -0 -0 -0 -0 -0 -0 -0 -0 -0 -0 -0 -0 -0 -0 -0 -0 -0 -0 -0 -0 -0 -0 -0 -0 -1 -0 -2 -1 -0 -0
-0 -0 -0 -0 -0 -0 -0 -0 -0 -0 -0 -0 -0 -0 -0 -0 -0 -0 -0 -0 -0 -0 -0 -0 -0 -0 -0 -0 -0 -0 -0 -0 -0 -0 -0 -0 -0 -0 -0 -0 -0 -0 -2 -1 -1 -0 -0 -0 -0
-0 -0 -0 -0 -0 -0 -0 -0 -0 -0 -0 -0 -0 -0 -0 -0 -0 -0 -0 -0 -0 -0 -0 -0 -0 -0 -0 -0 -0 -0 -0 -0 -0 -0 -0 -0 -0 -0 -0 -0 -0 -2 -1 -1 -1 -2 -0 -0 -0
-0 -0 -0 -16 -8 -0 -0 -0 -0 -0 -0 -0 -0 -0 -0 -0 -0 -0 -0 -0 -0 -0 -0 -0 -0 -0 -0 -0 -0 -0 -0 -0 -0 -0 -0 -0 -0 -0 -0 -0 -0 -0 -4 -1 -2 -0 -0 -0 -0
-69 -2 -82 -17 -17 -0 -0 -0 -0 -0 -0 -0 -0 -0 -0 -0 -0 -0 -0 -0 -0 -0 -0 -0 -0 -0 -0 -0 -0 -0 -0 -0 -0 -0 -0 -0 -0 -0 -0 -0 -0 -0 -1 -4 -3 -0 -0 -0 -0
-62 -8 -0 -0 -1 -1 -0 -3 -3 -0 -0 -0 -0 -0 -0 -0 -0 -0 -0 -0 -0 -0 -0 -0 -0 -0 -0 -0 -0 -0 -0 -0 -0 -0 -0 -0 -0 -0 -0 -0 -3 -2 -0 -0 -0 -0 -0 -0 -0
Wind_Speed
6 6 2 4 5 6 3 8 5 2 4 5 4 9 8 5 2 4 6 12 11 10 7 8 10 11 11 10 10 10 10 10 10 9 8 8 8 8 7 6 6 5 5 6 6 5 4 4 4
5 3 5 3 5 3 7 6 6 4 14 17 13 9 7 4 4 10 6 10 11 11 7 9 12 12 13 12 11 11 12 12 11 11 10 10 9 8 6 6 5 5 5 5 5 6 7 5 3
2 2 4 4 3 5 5 3 3 10 21 9 8 6 4 6 11 4 12 11 11 10 10 10 12 12 13 12 12 12 12 12 12 11 10 9 8 9 8 6 5 5 5 5 5 5 4 5 5
2 5 5 4 7 5 4 11 10 5 2 7 15 11 3 6 4 10 13 12 11 10 9 8 10 12 13 13 12 12 12 12 12 12 10 9 8 7 8 7 7 6 6 5 6 5 5 5 6
4 3 3 2 5 5 7 13 10 8 4 6 4 6 4 3 14 16 13 11 12 8 6 6 9 11 12 13 13 12 12 12 12 14 13 11 9 9 8 7 6 7 7 7 6 6 6 5 5
4 3 3 3 4 6 9 10 5 5 3 7 10 8 3 12 13 12 11 11 9 8 6 5 11 12 13 13 12 10 10 11 12 15 16 15 14 11 13 7 7 7 7 8 7 7 7 7 6
5 4 4 4 5 8 6 9 3 3 4 4 8 7 9 11 13 13 12 11 8 6 6 5 5 8 10 10 9 10 10 13 14 14 14 14 13 14 15 15 14 13 10 9 8 9 9 9 9
5 5 3 3 1 8 7 8 1 8 3 3 8 9 10 13 16 14 12 10 8 6 6 5 5 5 5 5 9 10 11 14 14 15 15 16 15 15 16 15 16 16 15 15 14 14 11 9 10
4 2 4 5 2 6 7 8 6 4 8 4 7 7 12 19 17 15 12 7 6 5 5 4 5 4 4 5 6 9 14 14 13 12 15 10 5 7 9 13 16 18 18 17 16 15 16 14 8
3 3 8 7 4 5 5 3 6 4 2 4 4 11 23 21 17 16 14 12 8 6 4 5 5 6 5 5 6 6 7 5 5 6 7 5 6 6 8 10 16 16 17 15 15 14 13 10 6
1 4 4 8 10 6 3 6 3 4 4 8 12 20 23 21 17 16 13 12 9 7 5 6 6 5 6 5 4 3 3 4 4 6 6 6 5 4 4 4 4 4 10 5 8 8 6 7 6
5 7 5 5 3 4 3 2 7 5 4 6 20 25 22 21 19 17 15 12 11 8 7 6 7 6 6 4 4 4 4 4 3 5 6 5 4 5 5 4 4 4 4 6 6 5 7 8 9
3 5 8 10 8 5 3 5 6 8 5 11 14 15 19 17 17 13 12 11 10 10 6 6 6 5 4 6 4 4 4 4 4 5 6 5 5 4 4 5 4 4 5 6 6 6 6 7 8
3 10 11 7 9 6 5 7 3 4 9 13 18 17 16 17 18 9 13 12 8 10 8 6 6 5 5 4 5 4 4 5 4 4 5 6 5 4 5 5 6 7 6 5 4 5 6 6 7
5 8 9 11 5 6 1 7 9 7 13 17 15 16 16 17 13 16 16 16 16 11 11 9 7 6 6 5 5 4 4 6 4 4 6 6 6 6 5 5 6 6 6 7 6 7 6 6 7
6 5 4 9 4 10 8 10 15 7 13 17 18 17 18 18 17 17 17 14 11 13 11 9 8 7 5 4 3 3 4 4 4 4 5 7 6 6 6 5 5 5 5 6 5 6 6 5 6
2 5 6 11 8 6 8 9 19 17 17 14 16 15 15 8 9 13 15 16 14 12 13 10 8 8 5 3 3 3 5 5 4 4 5 6 6 6 5 4 4 5 5 5 5 5 6 7 8
6 6 7 7 8 1 7 9 10 10 12 17 17 14 12 13 17 15 16 15 14 12 14 10 7 7 5 4 4 4 4 4 3 4 5 6 5 6 5 5 5 5 4 5 5 5 6 5 8
10 14 14 16 15 6 9 7 10 9 4 9 13 14 13 16 9 12 14 14 14 11 12 11 10 7 5 3 4 3 3 3 4 4 6 6 6 6 6 4 5 4 5 5 6 5 8 7 10
14 17 19 16 15 8 10 8 9 7 8 9 13 14 16 9 14 15 15 15 13 13 12 10 10 8 7 4 3 3 3 4 4 3 5 6 7 7 7 5 5 6 5 7 7 9 7 4 9
17 17 16 17 9 8 2 13 4 5 4 5 8 17 16 22 22 18 17 14 13 13 12 12 9 8 6 7 4 4 4 4 3 4 4 5 9 7 6 7 6 7 6 6 5 8 10 7 8
22 12 19 21 6 7 5 18 6 3 7 6 8 11 15 18 18 19 17 14 13 8 11 11 10 9 7 8 8 8 5 5 2 3 3 6 8 7 7 7 6 6 4 5 5 7 7 6 7
15 7 11 11 6 2 6 3 2 3 6 8 10 11 17 20 24 22 19 17 13 14 13 11 11 10 8 8 8 7 7 5 4 4 7 6 6 9 8 8 7 6 4 6 8 8 8 6 5
7 7 5 3 3 5 9 8 16 7 8 11 16 18 12 20 19 15 15 16 13 12 12 10 12 8 8 8 8 8 9 7 6 5 5 4 4 5 7 7 6 5 6 7 7 8 9 8 7
5 3 5 6 4 10 6 5 16 6 14 6 14 16 11 20 19 19 21 17 15 14 12 11 13 9 8 9 8 8 9 8 8 6 4 5 4 3 5 5 5 4 5 8 7 7 8 8 7
16 10 8 7 9 11 1 7 6 4 6 7 11 13 15 15 15 16 16 15 14 13 12 11 12 11 10 9 9 8 9 6 6 7 5 4 4 3 5 5 5 6 8 7 7 6 6 8 7
8 11 7 6 2 1 5 4 8 7 8 8 10 11 18 17 16 18 14 12 13 11 11 10 11 10 10 11 9 9 8 10 9 8 6 4 4 5 5 5 5 7 8 7 7 5 7 7 8
2 4 4 1 4 5 5 2 6 5 6 7 8 8 11 13 17 15 16 12 10 10 10 9 10 11 10 10 9 8 9 10 8 7 6 5 4 5 5 6 8 7 7 7 7 6 8 8 6
6 6 6 2 3 6 4 3 12 14 8 7 9 11 12 15 15 13 12 12 12 11 12 11 11 11 10 10 9 8 8 9 7 6 4 4 4 4 6 9 8 6 7 9 8 9 9 9 10
5 2 1 3 2 3 6 3 5 10 12 13 13 12 6 5 9 12 13 14 13 12 12 11 8 9 9 9 9 8 10 8 6 5 5 5 7 7 8 7 7 8 8 8 9 9 8 10 11
Wind_Direction
302 309 102 48 47 66 301 265 294 285 51 10 47 113 110 47 166 187 103 121 122 104 96 95 80 78 78 76 75 78 77 72 69 64 55 58 64 72 74 72 62 49 32 30 31 24 35 18 30
321 352 45 84 89 55 278 263 8 29 126 118 106 110 53 87 68 119 104 110 102 96 87 88 81 83 80 76 76 73 72 66 55 51 50 43 41 44 44 46 43 32 20 18 17 15 24 11 3
274 4 86 114 132 171 216 274 188 145 161 160 114 39 88 122 123 103 109 106 97 98 96 98 99 92 89 80 76 72 68 63 56 46 40 38 32 25 21 19 12 8 2 357 0 6 10 1 347
43 6 25 92 249 258 232 282 238 171 164 68 113 99 87 301 120 129 121 119 102 98 86 78 90 95 95 90 81 74 70 65 60 47 38 29 22 17 10 7 359 352 343 336 337 339 346 347 342
43 61 45 311 269 258 261 241 208 211 150 123 152 117 80 51 114 124 129 113 106 98 91 95 110 108 101 92 85 80 72 66 55 39 32 22 19 14 2 2 0 357 352 339 329 326 318 315 316
22 85 38 275 291 281 272 267 168 205 117 148 91 96 100 135 131 127 120 108 110 123 139 145 127 114 104 100 94 83 73 62 57 44 35 36 34 26 17 15 19 11 354 342 332 314 297 293 287
129 93 237 253 293 311 290 324 358 256 83 51 117 91 134 146 128 127 122 117 123 139 150 156 137 114 113 108 99 93 81 72 58 48 37 30 27 29 30 26 15 3 353 339 328 317 308 300 293
105 108 277 265 326 275 300 353 277 67 52 114 156 148 175 158 135 123 117 120 131 146 149 150 126 121 108 104 100 77 80 75 60 49 44 32 29 32 32 28 17 13 13 18 16 4 340 314 308
116 64 272 253 266 297 316 358 17 37 88 46 345 144 145 146 136 127 126 119 125 125 133 119 97 113 118 87 86 75 82 74 63 49 47 36 24 24 27 24 19 17 25 29 23 21 19 15 346
101 151 240 222 209 242 294 356 303 93 99 38 44 93 134 143 144 144 154 155 149 146 138 113 93 93 90 91 80 72 83 79 66 62 50 46 28 28 32 26 29 32 26 21 14 14 15 12 355
104 219 261 262 241 228 217 295 183 348 257 198 170 152 153 148 155 160 165 163 159 151 130 130 113 98 102 94 92 75 76 85 67 65 61 48 33 9 15 9 21 19 19 12 12 5 10 8 6
313 240 246 275 332 310 245 252 295 168 256 237 172 163 158 162 167 168 166 159 148 146 146 138 117 105 106 105 100 109 90 98 72 64 59 58 41 16 9 13 12 12 9 7 4 14 7 10 6
221 283 329 302 290 259 281 228 249 274 206 121 145 162 163 167 170 173 157 154 148 136 135 131 115 108 119 98 105 88 84 90 98 69 57 61 49 32 10 7 19 16 17 22 21 14 9 8 359
284 304 290 278 288 277 260 279 124 265 136 139 154 168 175 177 178 143 154 154 151 132 128 131 113 106 111 98 109 99 96 99 95 81 73 59 61 39 27 22 17 19 20 16 12 4 9 3 356
291 299 312 287 271 274 30 307 245 214 166 158 171 179 180 187 173 168 161 161 150 146 140 130 113 88 80 83 113 111 108 100 97 87 81 68 56 50 45 37 31 20 15 15 9 13 4 359 350
317 313 280 262 255 263 121 263 271 216 171 178 179 186 187 190 177 164 154 143 144 139 138 130 114 100 92 99 108 92 93 97 99 84 78 70 53 52 57 53 37 20 22 21 8 4 5 355 342
251 247 238 304 197 245 164 241 249 245 179 187 186 189 190 165 149 155 152 146 146 138 127 121 120 116 125 85 64 64 90 96 97 88 81 73 63 56 60 60 42 27 30 25 5 0 357 356 350
227 220 248 229 288 260 278 253 274 254 162 189 189 188 186 177 171 155 152 150 146 141 130 125 115 110 94 70 85 79 87 87 74 93 86 86 78 67 59 49 43 36 29 20 11 7 359 350 340
252 267 266 275 274 282 260 250 274 279 233 175 200 194 186 184 158 149 144 140 137 133 126 130 124 120 114 102 100 84 96 93 66 70 81 74 73 68 62 53 41 33 42 29 11 3 5 0 351
238 252 263 271 269 256 253 259 259 272 226 199 185 196 185 138 154 155 150 152 151 144 139 128 123 118 109 111 115 100 115 78 100 73 63 65 62 60 62 50 40 35 33 30 20 17 3 354 2
247 245 256 253 257 270 304 275 215 247 248 221 211 196 175 167 167 166 165 159 143 142 137 127 127 113 102 105 104 90 81 69 43 27 46 39 75 69 64 60 53 39 40 31 15 20 12 354 3
259 253 257 260 224 247 194 277 222 226 264 247 218 205 196 182 174 163 160 149 144 130 116 117 112 103 88 93 90 94 111 116 99 80 59 59 66 53 60 57 50 47 34 33 17 16 11 1 352
273 277 265 256 222 154 207 226 85 226 253 269 273 210 206 181 172 171 157 142 131 126 124 119 107 97 96 94 100 105 98 92 92 72 66 58 54 47 48 44 40 34 25 27 18 10 4 3 351
299 292 269 262 151 213 225 194 267 222 218 248 258 274 197 172 165 142 133 129 123 118 118 115 110 106 99 93 89 93 100 99 83 67 66 53 58 54 41 45 38 30 36 25 14 7 1 358 353
207 257 290 242 205 245 149 200 245 234 268 233 252 270 179 155 145 141 136 131 125 121 121 116 115 110 102 97 90 94 97 92 92 85 80 65 49 48 33 43 41 32 32 30 16 9 1 1 353
218 186 204 248 238 255 224 226 256 55 19 57 73 88 96 115 124 121 122 123 122 120 123 118 119 119 116 108 100 92 92 89 82 82 82 68 51 55 37 42 40 39 33 24 13 9 360 5 7
230 213 213 231 221 124 256 298 297 37 32 82 98 109 123 123 122 120 117 121 123 119 128 124 124 113 103 105 102 94 87 85 87 78 69 57 38 48 36 40 47 37 32 19 14 3 31 13 2
29 211 222 15 171 225 247 244 246 39 80 80 86 92 98 108 117 128 130 135 121 110 110 108 112 112 107 103 97 90 89 90 89 80 68 57 45 47 36 31 43 35 26 20 29 16 27 2 343
2 357 5 87 160 197 231 182 31 35 1 122 117 114 125 129 140 140 132 127 119 116 119 114 111 108 101 103 106 99 92 91 82 76 67 58 62 53 47 50 36 21 22 52 36 17 14 352 341
61 353 68 243 76 322 284 189 12 31 27 51 57 71 71 58 133 134 134 133 135 123 120 116 113 112 114 115 106 96 93 88 84 75 52 57 57 40 62 47 25 27 52 44 38 17 0 349 340